Location: Starlight Observatory
(38.4029°N, 85.8936°W)
Time: 11:01:04
(UTC-04:00)

Iridium 84 - Visible Passes

Search period start: 05 July 2015 00:00
Search period end: 15 July 2015 00:00
Orbit: 776 x 779 km, 86.4° (Epoch: 05 July)

Date Brightness Start Highest point End Pass type
(mag) Time Alt. Az. Time Alt. Az. Time Alt. Az.
05 Jul 5.6 02:11:28 73° NNE 02:11:28 73° NNE 02:16:14 10° N visible
05 Jul 7.8 03:51:58 10° WNW 03:52:34 10° WNW 03:52:45 10° WNW visible
06 Jul 6.3 01:38:04 42° ENE 01:38:04 42° ENE 01:42:29 10° NNE visible
06 Jul 7.2 03:18:32 20° WNW 03:18:33 20° WNW 03:22:12 10° NNW visible
07 Jul 7.1 01:04:39 23° ENE 01:04:39 23° ENE 01:08:18 10° NNE visible
07 Jul 6.5 02:45:07 35° WNW 02:45:07 35° WNW 02:49:30 10° NNW visible
08 Jul 7.8 00:31:14 12° ENE 00:31:14 12° ENE 00:33:08 10° NE visible
08 Jul 5.8 02:11:42 62° NW 02:11:42 62° NW 02:16:18 10° N visible
09 Jul 5.9 01:38:16 58° NE 01:38:16 58° NE 01:42:45 10° N visible
09 Jul 7.7 03:18:44 13° WNW 03:18:55 13° WNW 03:21:15 10° NW visible
10 Jul 6.7 01:04:50 33° ENE 01:04:50 33° ENE 01:08:51 10° NNE visible
10 Jul 7.0 02:45:18 25° WNW 02:45:18 25° WNW 02:49:10 10° NNW visible
11 Jul 7.4 00:31:24 18° ENE 00:31:24 18° ENE 00:34:25 10° NE visible
11 Jul 6.3 02:11:52 44° WNW 02:11:52 44° WNW 02:16:14 10° N visible
12 Jul 5.8 01:38:25 66° N 01:38:25 66° N 01:42:53 10° N visible
13 Jul 6.2 01:04:57 45° ENE 01:04:57 45° ENE 01:09:12 10° NNE visible
13 Jul 7.5 02:45:25 17° WNW 02:45:25 17° WNW 02:48:34 10° NW visible
14 Jul 7.0 00:31:30 26° ENE 00:31:30 26° ENE 00:35:07 10° NNE visible
14 Jul 6.8 02:11:58 31° WNW 02:11:58 31° WNW 02:16:01 10° NNW visible
